753  
ASUS44 KOUN 140810  
RWROK  
 
WEATHER ROUNDUP FOR OKLAHOMA  
NATIONAL WEATHER SERVICE NORMAN OK  
300 AM CDT WED APR 14 2021  
 
NOTE: "FAIR" INDICATES FEW OR NO CLOUDS BELOW 12,000 FEET WITH NO  
SIGNIFICANT WEATHER AND/OR S TO VISIBILITY
.  
 
OKZ001>007-009>012-014-015-017-140900-  
NORTHWEST OKLAHOMA AND THE PANHANDLE  
 
CITY SKY/WX TMP DP RH WIND PRES REMARKS
 
GAGE PTCLDY 38 27 64 NE6 30.19F WCI 33  
GUYMON MOCLDY 44 25 47 E12 30.17F  
ENID/WOODRING N/A 46 41 81 CALM 30.17F  

 
 
OKZ016-021>023-033>039-044-045-140900-  
SOUTHWEST OKLAHOMA  
 
CITY SKY/WX TMP DP RH WIND PRES REMARKS
 
LAWTON/REGL LGT RAIN 49 45 86 N16 30.13R  
LAWTON/FT SILL LGT RAIN 48 48 100 N18 30.11R  
FREDERICK CLOUDY 49 46 90 NE13 30.09S  
CLINTON CLOUDY 47 42 83 NE14 30.16S  
ALTUS AFB CLOUDY 48 44 88 NE17 30.12S  

 
 
OKZ018>020-024>031-140900-  
CENTRAL OKLAHOMA  
 
CITY SKY/WX TMP DP RH WIND PRES REMARKS
 
OKLAHOMA CITY LGT RAIN 47 45 93 NE17 30.14R  
OKC/WILEY POST LGT RAIN 48 44 86 NE14 30.15F  
OKC/TINKER AFB HVY RAIN 47 47 100 NE15G21 30.12F FOG  
STILLWATER LGT RAIN 49 45 86 N3 30.18S  
GUTHRIE LGT RAIN 46 46 100 NE7 30.17S FOG  

 
 
OKZ008-013-054>072-140900-  
NORTHEAST OKLAHOMA  
 
CITY SKY/WX TMP DP RH WIND PRES REMARKS
 
TULSA LGT RAIN 50 48 93 N10 30.19R  
TULSA/JONES RAIN 49 47 93 NE15G22 30.16S FOG  
PONCA CITY CLOUDY 49 32 52 E3 30.18F  
BARTLESVILLE CLOUDY 50 45 83 CALM 30.20R  
MUSKOGEE RAIN 50 48 93 N7 30.15R FOG  

 
 
OKZ032-040>043-046>053-073>077-140900-  
SOUTH CENTRAL/SOUTHEAST OKLAHOMA  
 
CITY SKY/WX TMP DP RH WIND PRES REMARKS
 
ARDMORE/DWNTWN CLOUDY 52 47 81 N16G26 30.04F  
MCALESTER RAIN 53 51 93 NW12 30.11R FOG  

 
 
 
 
CLICK HERE TO GO TO PREVIOUS BULLETINS.

The Nexlab OK Page Main Text Page